Location: Poughquag
(41.6090°N, 73.6820°W)
Time: 12:20:01
(UTC-04:00)

Tiros 1 despin weight - Pass Details

Date: 01 June 2020
Orbit: 593 x 642 km, 48.2° (Epoch: 07 July)

Event Time Altitude Azimuth Distance (km) Brightness Sun altitude
Rises 16:25:34 0° 296° (WNW) 2,879 ? 41.7°
Reaches altitude 10° 16:27:54 10° 293° (WNW) 1,963 ? 41.3°
Maximum altitude 16:32:20 58° 214° (SW) 702 ? 40.5°
Drops below altitude 10° 16:36:40 10° 135° (SE) 1,928 ? 39.7°
Sets 16:38:58 0° 132° (SE) 2,822 ? 39.2°
